METEOR 2-11 DEB, 60005

Orbit data source: Space-Track

METEOR 2-11 DEB, 60005 is space debris in LEO originally from a launch on Thu, 05 Jul 1984 UTC launched from the Plesetsk Missile And Space Complex (PKMTR). Debris objects in space refer to the collection of defunct objects orbiting the Earth. Examples of debris include non-operational satellites, rocket bodies, and fragments generated from explosions, collisions, or faulty payload assembly.

Loading next visibility...
Identifier
60005, 1984-072AA
Orbit
LEO
Country
Flag of CISCIS
Related business
Manufacturer
Unknown
Mission
Spacecraft
Bus & Motor
Unknown
Mass
Unknown
Launch date (UTC)
1984-07-05 (41 years ago)
Launch vehicle
Unknown
Launch site
Plesetsk Missile And Space Complex (PKMTR)
Object type
Payload
Rocket body
Debris
Shape & HBR
Unknown
Radar Cross Section
Small (<0.1 m²)

Expand to show TLE details & history
Last TLE update: 1 week ago

TLE from 1 week ago
0 METEOR 2-11 DEB
1 60005U 84072AA  25251.23295793  .00002009  00000-0  13681-2 0  9999
2 60005  82.5208 232.3528 0028814  51.5886 308.7863 13.99317637397462
Epoch: 2025-09-08T05:35Z
TLE epoch observation values (Epoch: 2025-09-08T05:35:27.565Z)
Latitude
-0.00001°
Longitude
160.94692°
Altitude
885.986 km
Speed
7.416 km/s
True Right ascension
15h 29m 24s
True Declination
0° 00' 00"
Sunlit
Object was in daylight at epoch
Visualization orbit readout
Latitude
Unknown
Longitude
Unknown
Altitude
Unknown
Speed
Unknown
Apparent Right ascension
Unknown
Apparent Declination
Unknown
Sunlit
N/A
Visualization observer readout
Local Sidereal Time
03:21:50
Azimuth
Unknown
Elevation
Unknown
Doppler factor
Unknown
Orbital elements
Apogee altitude
914.243 km
Perigee altitude
872.339 km
Semi-major axis
7,271.428 km
Eccentricity
0.00288
Inclination
82.5208°
RAAN
232.3528°
Arg. of periapsis
51.5886°
True anomaly
308.52834°
Mean anomaly
308.7863°
Eccentric anomaly
308.65738°
Mean motion
3.50037 °/min
Orbital period
102.85 mins
BSTAR
0.0013681
Loading maneuver chart data...
Computing Atmospheric mass density...
Loading historical data...
Loading historical data...
Loading historical data...
Loading historical data...
Loading historical data...
Loading historical data...
Loading historical data...

Documentation

Showing up to 5 results
|